RH
79 85 89 93 96 94 87 81 75 76 76 75 73 76 78 81 77 84 85 84 89 91 86 83 79 71 60 52 45 41 40 40 38 38 34 30 32 33 34 35 38 41 43 46 49 54 56 62 67
78 87 84 89 92 86 78 75 76 72 72 73 75 76 76 79 77 78 78 81 83 80 78 74 68 62 51 45 40 39 38 37 37 35 32 34 38 40 39 39 39 40 43 45 46 51 56 60 67
82 85 77 86 84 77 71 69 72 71 71 70 75 71 72 76 76 72 71 72 73 72 70 64 58 52 45 40 40 38 39 40 39 39 38 43 47 47 46 44 42 42 44 45 45 50 53 58 64
85 82 81 89 74 69 74 73 67 68 71 68 67 71 72 73 73 68 66 65 66 66 63 55 50 45 40 39 39 39 40 41 41 41 45 48 50 52 55 51 49 50 51 47 43 50 53 56 59
81 82 90 82 72 66 60 63 69 63 67 66 60 68 67 71 69 65 62 60 60 57 54 50 45 40 38 38 39 40 42 43 45 47 52 53 55 58 57 54 55 57 57 58 53 54 53 57 58
74 78 79 77 69 59 56 62 65 60 60 64 62 61 65 64 64 61 57 53 52 51 52 47 43 42 41 39 40 42 45 47 49 49 54 59 59 59 57 59 64 67 66 65 64 62 61 61 62
69 65 69 66 71 71 61 51 58 53 55 59 55 58 62 61 59 55 55 55 54 53 49 44 43 43 43 42 42 44 47 49 50 53 56 58 57 61 59 59 58 63 62 62 65 64 66 67 70
66 63 62 62 67 64 59 55 48 47 58 52 51 53 55 54 52 52 54 55 52 50 48 45 43 42 42 43 43 43 46 45 46 48 49 51 55 58 53 50 47 47 48 48 48 49 49 50 48
64 61 60 56 56 61 63 62 60 44 50 47 54 45 45 46 46 49 52 52 51 50 48 45 43 41 42 43 44 44 44 43 43 44 46 57 60 64 60 54 44 43 43 45 44 50 46 44 37
62 59 54 50 53 58 58 57 50 45 37 36 53 50 47 46 45 46 46 46 46 47 45 44 41 40 40 40 40 41 39 38 38 44 50 54 63 63 61 56 56 51 46 48 50 46 41 35 34
51 54 56 47 52 52 57 52 53 53 43 35 32 43 45 41 47 47 43 41 43 44 42 40 40 37 35 35 35 35 36 38 37 42 51 62 64 68 67 67 64 62 45 53 55 42 36 35 33
43 46 51 50 52 50 51 48 54 49 36 39 35 31 40 40 41 38 37 42 40 43 41 37 39 36 35 34 34 36 39 40 39 41 46 53 59 63 60 61 56 51 51 49 46 41 44 40 34
38 42 47 51 48 52 54 50 50 50 43 43 43 35 37 41 39 40 36 36 36 40 40 38 37 34 35 36 37 35 40 41 46 49 50 49 51 50 51 49 48 45 45 48 45 45 44 41 38
37 36 38 40 45 51 51 50 49 53 49 47 44 36 34 40 40 41 36 36 39 39 37 40 37 34 36 37 38 39 44 46 46 52 58 56 50 53 56 51 50 46 48 55 51 50 49 44 41
33 32 30 31 35 53 47 50 47 44 47 40 44 39 31 36 41 39 35 34 37 34 37 37 35 35 34 33 37 41 41 44 45 44 56 55 47 48 50 49 49 51 61 46 54 46 48 46 42
30 28 28 30 31 43 43 49 47 45 49 55 48 42 31 32 37 37 35 35 34 36 37 37 37 32 31 31 35 40 44 39 39 43 48 48 50 51 49 49 44 43 48 47 41 39 41 44 41
31 29 27 27 31 44 46 50 46 50 46 44 54 47 32 29 34 34 34 33 33 35 37 37 35 33 31 33 30 36 41 43 44 44 44 50 56 57 54 46 43 44 44 46 38 36 34 34 30
30 29 27 27 30 37 41 42 45 49 51 49 51 45 36 24 27 30 31 32 32 32 33 35 34 31 31 29 33 36 39 43 40 36 39 46 50 53 47 41 41 39 37 31 31 33 29 24 17
30 30 27 28 31 34 37 40 43 49 53 51 48 40 34 27 22 28 31 32 32 32 31 31 29 28 30 32 36 37 38 39 38 35 39 41 44 47 43 43 36 35 30 28 24 27 21 16 24
25 27 26 26 28 32 43 40 43 47 48 45 43 44 32 31 21 24 27 30 27 27 29 29 27 27 26 29 32 36 34 33 36 37 38 40 37 37 37 35 34 27 26 26 25 28 20 24 26
18 24 25 25 28 35 42 47 48 47 50 50 47 41 31 29 29 19 24 23 24 24 25 24 23 24 24 26 30 35 37 30 33 34 34 33 34 36 34 31 27 26 27 32 34 34 31 38 38
16 18 24 27 30 37 48 53 51 50 51 49 47 43 32 30 30 24 19 21 23 22 22 22 23 23 22 24 25 29 28 33 33 35 36 34 36 36 33 28 28 33 34 39 44 47 47 52 54
11 16 25 28 30 33 40 47 46 47 49 48 45 44 43 31 31 30 23 25 21 22 23 23 22 22 22 23 23 24 28 30 31 36 34 34 35 33 31 31 37 41 46 49 51 48 46 50 57
9 12 20 27 31 36 32 38 42 45 43 45 44 42 43 39 32 32 32 35 35 32 31 30 28 24 23 24 23 21 22 25 29 30 34 33 38 32 31 42 39 44 48 46 49 50 48 44 57
12 11 16 24 30 29 29 37 33 33 36 38 41 42 41 43 43 40 35 39 38 34 34 35 36 36 29 26 24 23 21 21 24 27 32 31 30 29 35 43 45 44 46 47 44 48 49 45 46
13 12 12 18 26 27 27 35 25 28 34 36 38 41 40 41 44 37 38 36 35 35 35 36 36 39 34 30 29 28 26 21 21 26 30 29 26 32 39 45 46 45 43 45 44 46 49 50 48
13 13 11 12 17 25 25 26 23 25 31 32 36 40 38 38 42 44 45 38 35 38 35 37 37 38 36 29 28 28 27 26 24 33 31 26 31 38 44 46 47 44 43 45 45 47 49 50 50
13 12 13 14 14 16 18 22 21 21 26 27 30 35 34 36 39 41 36 31 32 36 38 37 36 36 35 32 28 25 24 25 26 32 29 28 33 42 44 46 46 45 50 51 52 47 46 49 50
14 14 14 13 14 12 17 12 14 15 24 28 29 28 32 34 36 38 36 36 33 34 37 38 36 37 37 34 31 27 24 23 25 30 28 29 39 41 42 43 43 45 48 50 51 53 47 48 51
16 14 13 14 14 15 10 8 9 13 22 27 28 33 36 33 38 39 37 35 39 34 34 37 34 36 34 34 35 31 26 22 25 29 25 31 39 40 41 43 46 48 49 50 52 54 53 48 48